Weather History for K4MR - January, 2014

Change the Weather History Date:

Wednesday, January 22, 2014

  Actual Average (KCVS) Record (KCVS)
Temperature  
Mean Temperature 38 °F -  
Max Temperature 45 °F 52 °F 73 °F (2009)
Min Temperature 30 °F 27 °F 13 °F (2008)
Degree Days  
Heating Degree Days 28    
Moisture  
Dew Point 11 °F    
Average Humidity 34    
Maximum Humidity 56    
Minimum Humidity 22    
Precipitation  
Precipitation 0.00 in - - ()
Sea Level Pressure  
Sea Level Pressure 30.06 in    
Wind  
Wind Speed 15 mph (NE)    
Max Wind Speed 20 mph    
Max Gust Speed 25 mph    
Visibility 12 miles    
Events      
Averages and records for this station are not official NWS values.
T = Trace of Precipitation, MM = Missing Value Source: NWS Daily Summary

Daily Weather History Graph

Daily Weather History Graph

Search for Another Location

Airport or City:

Trip Planner

Search our weather history database for the weather conditions in past years. The results will help you decide how hot, cold, wet, or windy it might be!

Date:

Astronomy

Jan. 22, 2014 Rise Set
Actual Time 6:58 AM MST 5:15 PM MST
Civil Twilight 6:31 AM MST 5:42 PM MST
Nautical Twilight 6:01 AM MST 6:12 PM MST
Astronomical Twilight 5:31 AM MST 6:42 PM MST
Moon 11:30 PM MST (1/22) 10:18 AM MST (1/22)
Length of Visible Light 11h 10m
Length of Day
10h 16m
Waning Gibbous, 65% of the Moon is Illuminated
Jan 22
Waning Gibbous
Jan 23
Last Quarter
Jan 30
New
Feb 6
First Quarter
Feb 14
Full

Hourly Weather History & Observations

Time (MST) Temp. Windchill Dew Point Humidity Pressure Visibility Wind Dir Wind Speed Gust Speed Precip Events Conditions
12:56 AM 43.0 °F 34.5 °F 6.3 °F 22% 30.04 in 12.0 mi WSW 19.6 mph 25.3 mph N/A   Clear
1:56 AM 40.6 °F 31.4 °F 6.4 °F 24% 30.03 in 12.0 mi WSW 19.6 mph - N/A   Clear
2:56 AM 37.6 °F 27.4 °F 6.6 °F 28% 30.03 in 12.0 mi West 19.6 mph 25.3 mph N/A   Clear
3:56 AM 36.1 °F 26.2 °F 6.4 °F 29% 30.03 in 12.0 mi West 17.3 mph 21.9 mph N/A   Clear
4:56 AM 32.4 °F 23.5 °F 7.0 °F 34% 30.06 in 12.0 mi West 11.5 mph - N/A   Clear
5:56 AM 30.9 °F 22.2 °F 5.5 °F 34% 30.09 in 12.0 mi WNW 10.4 mph - N/A   Clear
6:56 AM 30.2 °F 21.3 °F 4.8 °F 34% 30.10 in 12.0 mi WNW 10.4 mph - N/A   Partly Cloudy
7:56 AM 31.5 °F 25.8 °F 6.6 °F 35% 30.09 in 12.0 mi North 5.8 mph - N/A   Mostly Cloudy
8:56 AM 37.2 °F 30.6 °F 8.6 °F 31% 30.10 in 12.0 mi North 9.2 mph - N/A   Mostly Cloudy
9:56 AM 40.3 °F 33.0 °F 9.5 °F 28% 30.09 in 12.0 mi NNE 12.7 mph - N/A   Clear
10:56 AM 43.3 °F 35.8 °F 10.2 °F 26% 30.07 in 12.0 mi NE 16.1 mph - N/A   Clear
11:56 AM 44.8 °F 38.3 °F 10.0 °F 24% 30.04 in 12.0 mi NE 13.8 mph - N/A   Partly Cloudy
12:56 PM 45.9 °F 39.4 °F 10.6 °F 24% 30.01 in 12.0 mi East 15.0 mph - N/A   Partly Cloudy
1:56 PM 45.7 °F 39.8 °F 11.5 °F 25% 29.99 in 12.0 mi East 12.7 mph - N/A   Partly Cloudy
2:56 PM 45.7 °F 40.2 °F 12.7 °F 26% 29.99 in 12.0 mi ENE 11.5 mph - N/A   Partly Cloudy
3:56 PM 45.1 °F 40.3 °F 13.6 °F 28% 30.00 in 12.0 mi East 9.2 mph - N/A   Mostly Cloudy
4:56 PM 43.7 °F 39.1 °F 13.6 °F 30% 30.01 in 12.0 mi East 8.1 mph - N/A   Partly Cloudy
5:56 PM 40.1 °F 34.1 °F 15.1 °F 36% 30.06 in 12.0 mi ENE 9.2 mph - N/A   Mostly Cloudy
6:56 PM 38.8 °F 32.1 °F 16.7 °F 41% 30.07 in 12.0 mi NE 10.4 mph - N/A   Mostly Cloudy
7:56 PM 37.9 °F 30.5 °F 16.9 °F 43% 30.10 in 12.0 mi East 11.5 mph - N/A   Mostly Cloudy
8:56 PM 36.1 °F 27.7 °F 17.4 °F 47% 30.10 in 12.0 mi East 12.7 mph - N/A   Overcast
9:56 PM 35.4 °F 26.4 °F 18.1 °F 49% 30.12 in 12.0 mi East 13.8 mph - N/A   Mostly Cloudy
10:56 PM 34.5 °F 25.3 °F 19.2 °F 54% 30.13 in 12.0 mi East 13.8 mph - N/A   Overcast
11:56 PM 33.4 °F 23.5 °F 19.2 °F 56% 30.13 in 12.0 mi East 15.0 mph - N/A   Mostly Cloudy